Regional Weather Roundup
Issued by NWS

Home | Current Version | Previous Version | Graphics & Text | Print | Product List | Glossary On
Versions: 1 2 3 4 5 6 7 8 9 10 11 12 13 14 15 16 17 18 19 20 21 22 23 24 25 26 27 28 29 30 31 32 33 34 35 36 37 38 39 40 41 42 43 44 45 46 47 48 49 50
000
ASUS45 KBOU 231610
RWRCO

WEATHER ROUNDUP FOR COLORADO
NATIONAL WEATHER SERVICE DENVER/BOULDER CO
900 AM MST TUE JAN 23 2018

NOTE: "FAIR" INDICATES FEW OR NO CLOUDS BELOW 12000 FEET WITH NO
SIGNIFICANT WEATHER AND/OR OBSTRUCTIONS TO VISIBILITY.

COZ001>005-013-030-031-231700-
...NORTHWEST COLORADO...

CITY           SKY/WX    TMP DP  RH WIND       PRES   REMARKS
CRAIG          FAIR       3   0  87 CALM      30.35R
HAYDEN         LGT SNOW  18  12  79 E8        30.33R WCI   7
MEEKER         FAIR      10   5  80 NE5       30.33R WCI   2
RABBIT EARS PA SNOW     N/A N/A N/A W13G22    30.15R VSB 1/4
STEAMBOAT SPGS CLOUDY    15  11  86 CALM      30.30R
WALDEN         FAIR      19   7  58 SW12      30.23R WCI   7
$$

COZ006>008-011-231700-
...WEST CENTRAL VALLEYS...

CITY           SKY/WX    TMP DP  RH WIND       PRES   REMARKS
GRAND JUNCTION FAIR      18  14  84 E6        30.39R WCI  10
MONTROSE       FAIR      19  10  68 SE6       30.40R WCI  11
EAGLE          FAIR      15   8  73 CALM      30.38R
RIFLE          FAIR      21  15  78 CALM      30.38R
DELTA          FAIR      23  14  69 CALM      30.41R
NUCLA          FAIR      18   9  68 CALM      30.40R
$$

COZ017>023-064>068-231700-
...SOUTHWEST COLORADO...

CITY           SKY/WX    TMP DP  RH WIND       PRES   REMARKS
DURANGO        FAIR       9   7  92 E3        30.28R
CORTEZ         FAIR      17   9  70 NE6       30.32R WCI   9
PAGOSA SPRINGS FAIR     N/A N/A N/A CALM      30.26R
TELLURIDE      FAIR      13   5  70 SE7       30.27R WCI   3
WOLF CREEK PAS FAIR      14 -13  29 CALM      30.23R
$$

COZ009-010-012-014-032>034-037-058>063-231700-
...CENTRAL COLORADO...

CITY           SKY/WX    TMP DP  RH WIND       PRES   REMARKS
ASPEN          FAIR      13   8  81 SW5       30.29R WCI   5
BUENA VISTA    FAIR      23   5  46 NW16      30.19R WCI   9
COPPER MTN     NOT AVBL
BERTHOUD PASS  HVY SNOW   0 -11  60 NW35G41   30.05R VSB<1/4 WCI -28
COTTONWOOD PAS FAIR      27   1  33 SW21G37   30.15R WCI  13
GUNNISON       FAIR      -2  -9  72 SE3       30.36R
KREMMLING      CLOUDY    21  14  73 SE3       30.31R
LEADVILLE      PTSUNNY   13   2  61 NE5       30.20R WCI   5
MONARCH PASS     N/A      5   1  85 SW21      30.20R WCI -16
SALIDA         FAIR      15   6  66 N7        30.30R WCI   5
SUNLIGHT       PTSUNNY    9   5  85 MISG      30.26R
WILKERSON PASS FAIR      10  -2  56 N6        30.14R WCI   1
$$

COZ069>075-231700-
...SAN LUIS VALLEY/SANGRE DE CRISTO MOUNTAINS...

CITY           SKY/WX    TMP DP  RH WIND       PRES   REMARKS
ALAMOSA        FAIR       8   2  76 CALM      30.27R
DEL NORTE      FAIR      16  -2  45 W13       30.25R WCI   2
LA VETA PASS   FAIR      14   3  62 SW28G39     N/A  WCI  -6
SAGUACHE       FAIR      19   5  53 NW7       30.26R WCI  10
$$

COZ035-036-038>040-231700-
...NORTHERN COLORADO FRONT RANGE...

CITY           SKY/WX    TMP DP  RH WIND       PRES   REMARKS
DENVER INTL AP FAIR      26   9  48 SW7       30.19R WCI  18
DMNS CITY PARK NOT AVBL
AURORA         MOSUNNY   29   9  43 NW5       30.20R WCI  23
FRONT RANGE AP MOSUNNY   28  10  47 SW6       30.20R WCI  22
ERIE MUNI ARPT FAIR      22  10  60 CALM      30.25S
BOULDER MUN AP FAIR      32   9  37 S3        30.19R
CENTENNIAL     FAIR      29   8  41 NW7       30.20R WCI  22
BROOMFIELD     MOSUNNY  N/A N/A N/A W3        30.20R
FORT COLLINS   FAIR      30  11  45 VRB6      30.20S WCI  24
LONGMONT       FAIR      27  12  52 CALM      30.21S
$$

COZ041-046-047-076>085-087-088-231700-
...PIKES PEAK/PALMER DIVIDE AND SOUTHERN FOOTHILLS...

CITY           SKY/WX    TMP DP  RH WIND       PRES   REMARKS
COLO. SPRINGS  FAIR      29   8  41 NW3       30.21R
A. F. ACADEMY  FAIR      28   6  38 N10       30.18R WCI  19
SCHRIEVER AFB  FAIR      31   6  34 N9        30.20R WCI  23
CHEYENNE MTN   FAIR      29   7  39 E5        30.13R WCI  24
ELLICOTT         N/A    N/A N/A N/A N5        30.19
FALCON         FAIR      30   3  32 N8        30.20R WCI  22
FORT CARSON    FAIR      28  10  46 N8        30.20R WCI  20
LIMON          FAIR      21   9  59 N6        30.22R WCI  13
MONUMENT HILL  FAIR      23   3  42 W5        30.20R WCI  17
CANON CITY     FAIR      32  12  43 W9        30.22R WCI  24
WALSENBURG     NOT AVBL
TRINIDAD       FAIR      28   7  41 W7        30.21R WCI  21
$$

COZ042>045-048>051-090-091-231700-
...NORTHEAST COLORADO...

CITY           SKY/WX    TMP DP  RH WIND       PRES   REMARKS
GREELEY ARPT   FAIR      20  13  74 CALM      30.23R
AKRON          FAIR      21  12  68 W10       30.21R WCI  10
BURLINGTON     FAIR      23  14  68 W10       30.22R WCI  12
WRAY           FAIR      28  19  69 W8        30.21R WCI  20
YUMA           FAIR      23  14  68 W10       30.21R WCI  12
STERLING       FAIR      32  19  59 NW16      30.20R WCI  21
HOLYOKE        FAIR      34  21  60 NW10      30.20R WCI  26
FORT MORGAN    FAIR      19  11  71 W6        30.23R WCI  11
$$

COZ086-089-092>099-231700-
...SOUTHEAST COLORADO...

CITY           SKY/WX    TMP DP  RH WIND       PRES   REMARKS
PUEBLO         FAIR      25  14  63 SW3       30.24R
LA JUNTA       FAIR      26  14  60 S3        30.25R
LAMAR          FAIR      19  12  74 W7        30.27R WCI  10
SPRINGFIELD      N/A     30  18  60 CALM      30.24R
$$



USA.gov is the U.S. government's official web portal to all federal, state and local government web resources and services.